Starlink 11365

operational
NORAD ID: 62886 Int'l Des: 2025-024 Owner: SPXS Country: US Constellation: starlink
LEOCIRCULAR

Starlink 11365について

説明を読み込み中...

リアルタイム位置

3D地球を読み込み中...

次回通過

高度履歴

Altitude vs Time

uPlot chart will show altitude changes over time

軌道要素

1 62886U 25024H 25258.98635933 .00206411 00000-0 15643-2 0 9996
2 62886 42.9995 154.2101 0002235 247.4647 112.5985 15.70962935 35994
Epoch: Sep 15, 2025 • Age: 23 hours

現在のステータス

高度 355.0 km
速度 7.70 km/s
衛星直下点 15.71°N, 170.09°W
打ち上げ日 Feb 4, 2025
運用期間 0.6 years
タイプ internet

技術仕様

分類 Payload
質量 960.00 kg
乾燥質量 910.00 kg
総質量 960.00 kg
長さ 0.30 m
直径 4.10 m
スパン 29.00 m
形状 Box + pan
製造者 SPXS
バスタイプ Starlink V2MD
フェーズステータス In Orbit
所有者/国 SPXS/US

大規模コンステレーション

Loading constellations...